Temp
22 22 21 23 18 21 25 28 30 28 28 29 27 26 26 24 22 19 20 19 18 16 18 18 18 18 18 18 18 18 18 18 18 18 18 18 18 18 18 18 18 18 18 18 18 18 18 18 18
20 22 23 20 19 22 24 29 28 28 28 28 26 25 24 22 21 20 18 19 18 17 17 17 18 18 18 18 18 18 18 18 18 18 18 18 18 18 18 18 18 18 18 18 18 18 18 18 18
22 23 21 16 17 19 27 29 28 28 28 28 26 25 24 22 21 19 19 18 17 16 16 17 17 18 18 18 18 18 18 18 18 18 18 18 18 18 18 18 18 18 18 18 18 18 18 19 19
23 24 18 19 20 22 29 29 29 28 27 28 26 25 23 23 20 19 19 18 17 16 16 17 17 18 18 18 18 18 18 18 18 18 18 18 18 18 17 18 18 18 18 18 18 18 18 19 19
25 23 17 18 20 21 30 29 29 28 28 28 26 24 22 22 19 19 18 18 18 17 16 17 17 18 18 18 17 18 18 18 18 18 18 18 18 18 18 18 18 18 18 18 18 18 19 19 19
27 21 20 21 19 21 28 29 28 28 27 26 25 23 22 21 19 19 19 18 17 16 15 17 17 17 17 17 17 17 18 18 18 18 18 17 18 18 18 18 18 18 18 19 18 19 19 19 19
26 22 21 20 21 18 23 29 29 29 28 27 25 25 23 21 20 19 18 18 17 16 17 16 16 16 17 17 17 17 18 18 18 17 17 18 18 18 18 18 18 18 18 18 19 19 19 19 19
29 19 24 23 20 18 26 29 29 29 28 27 25 24 24 21 20 19 18 18 17 17 17 17 16 16 16 16 16 17 17 18 17 17 17 18 18 18 18 18 18 19 19 19 19 19 20 20 20
29 20 22 25 25 24 26 29 28 28 28 27 26 25 23 21 20 19 18 18 18 17 17 16 16 16 15 15 16 17 17 18 18 18 18 18 18 18 17 18 19 19 19 19 20 20 20 20 21
26 19 26 27 22 20 26 29 29 29 28 27 26 24 23 22 20 19 19 18 17 18 17 17 16 15 15 16 17 17 18 18 18 18 18 17 17 18 19 19 20 19 19 20 21 20 20 20 21
21 24 30 27 21 20 21 29 28 26 23 26 26 24 23 23 21 20 20 19 18 17 17 17 17 16 16 17 17 17 18 18 18 18 19 18 18 20 20 20 20 20 20 21 21 21 21 21 21
25 26 30 28 27 22 29 29 26 24 24 26 26 24 24 24 24 21 21 20 19 19 18 18 18 17 17 17 17 18 18 18 19 19 19 19 19 20 20 20 21 20 20 21 20 20 21 21 22
24 22 29 29 28 28 27 29 27 26 27 27 26 25 24 24 24 24 23 21 20 20 20 19 18 18 17 17 18 18 18 18 19 20 20 19 19 20 20 19 19 20 21 21 22 21 22 22 22
26 25 30 29 28 28 28 27 28 27 27 27 26 25 25 25 24 23 23 22 21 20 19 19 19 19 18 18 18 19 19 19 19 20 19 20 20 21 20 21 20 20 22 22 22 22 22 22 22
29 28 21 24 29 29 28 26 24 22 27 27 26 26 26 25 24 24 23 23 22 20 20 20 19 18 18 18 18 18 19 19 19 20 19 18 19 21 19 20 21 21 22 21 22 22 22 23 23
31 25 18 19 21 29 27 20 20 24 27 27 27 27 26 25 24 23 23 23 23 21 20 19 19 19 18 18 19 19 19 19 19 19 20 19 18 20 20 20 20 21 21 21 22 21 21 23 23
30 23 20 20 24 29 27 18 21 26 26 27 28 27 26 25 24 24 24 23 23 21 20 20 19 19 19 18 19 19 19 20 19 19 20 20 19 20 20 19 20 21 21 21 21 22 22 23 24
27 22 22 21 24 29 28 22 27 27 27 27 27 27 26 25 25 24 24 23 23 22 21 21 19 19 19 19 19 19 20 20 20 20 20 20 19 20 20 19 21 21 20 20 21 21 22 23 22
32 29 27 27 27 27 30 29 28 28 28 27 26 27 26 26 25 25 24 23 23 22 20 20 20 19 19 19 19 19 19 20 20 20 20 20 19 19 21 20 20 21 20 21 20 22 21 22 23
32 31 30 29 30 30 31 30 29 29 28 27 26 27 27 27 26 25 24 24 23 22 20 20 20 19 19 19 19 20 20 20 21 20 20 20 20 19 20 20 20 21 21 20 21 22 21 22 22
32 31 31 29 30 31 31 30 28 25 26 28 28 27 27 27 25 26 25 24 24 22 21 20 19 19 19 19 19 20 20 21 21 21 20 20 19 19 19 19 20 20 20 20 20 21 22 22 22
30 32 32 30 29 29 31 28 26 27 23 27 28 27 28 27 27 26 26 25 24 22 21 20 19 19 19 18 20 19 20 20 20 20 19 20 20 19 19 19 19 19 19 20 19 20 21 21 22
31 33 33 32 31 30 31 30 29 23 26 26 30 29 28 27 27 26 26 26 25 23 22 21 20 19 19 19 19 19 20 20 20 21 20 20 20 19 19 19 19 19 20 19 19 20 19 21 21
32 32 32 32 31 29 31 31 27 22 27 27 30 30 29 28 27 26 26 25 26 24 22 21 21 19 19 20 19 19 20 20 20 20 20 19 20 19 20 19 19 19 19 19 19 19 20 21 20
31 30 28 28 28 28 31 32 27 23 28 27 31 30 30 29 27 26 25 23 26 24 23 22 21 20 19 20 20 20 19 20 20 20 19 19 20 20 20 20 19 19 19 19 19 19 19 20 20
31 31 29 27 28 24 29 29 30 31 31 29 32 31 29 29 29 26 27 25 26 25 24 23 22 21 20 20 20 20 20 20 20 19 19 19 19 20 20 20 19 19 19 19 19 19 19 19 19
31 30 32 31 30 27 26 26 29 33 32 33 33 26 24 25 28 29 28 27 26 25 24 23 22 22 21 21 21 20 20 20 20 20 20 20 20 20 20 20 20 19 19 19 19 19 19 19 19
31 33 30 31 28 27 25 26 24 27 32 32 25 24 26 31 30 29 28 27 26 25 24 23 23 23 22 22 21 21 21 21 20 19 19 20 20 20 20 19 19 19 19 19 19 19 19 19 19
31 30 31 32 31 30 25 26 30 29 32 32 26 24 25 30 30 29 28 27 26 25 24 24 23 22 22 21 20 20 20 20 21 20 20 19 20 20 20 20 20 18 19 19 19 19 19 19 19
32 31 31 30 29 31 31 30 33 32 33 33 26 18 23 26 29 28 28 26 25 24 24 23 23 22 22 21 20 20 20 20 19 20 20 20 20 20 20 20 19 20 19 19 19 19 19 19 19
Height
1497 1500 1504 1506 1515 1500 1489 1477 1468 1475 1477 1476 1481 1485 1495 1498 1504 1520 1522 1523 1526 1528 1530 1532 1535 1537 1540 1541 1543 1545 1546 1547 1549 1551 1552 1553 1555 1556 1557 1557 1558 1558 1559 1560 1560 1561 1561 1563 1563
1499 1503 1507 1503 1516 1503 1495 1473 1479 1481 1481 1481 1486 1494 1499 1508 1511 1517 1521 1526 1526 1529 1531 1533 1536 1539 1541 1542 1544 1546 1547 1548 1550 1552 1553 1555 1556 1557 1559 1560 1560 1560 1561 1562 1562 1562 1563 1564 1565
1500 1504 1509 1512 1520 1515 1482 1474 1479 1482 1482 1481 1488 1496 1503 1511 1515 1518 1523 1527 1528 1531 1533 1535 1538 1540 1541 1544 1546 1548 1549 1550 1551 1553 1554 1556 1557 1560 1560 1561 1562 1562 1563 1564 1564 1565 1565 1566 1567
1500 1501 1514 1524 1518 1491 1471 1475 1476 1483 1485 1484 1490 1500 1510 1510 1515 1520 1525 1528 1530 1531 1533 1536 1539 1541 1543 1545 1548 1549 1551 1552 1553 1553 1555 1557 1559 1561 1562 1562 1564 1564 1566 1567 1567 1567 1568 1569 1569
1499 1500 1519 1522 1513 1496 1473 1478 1480 1483 1486 1487 1493 1507 1514 1516 1518 1523 1525 1527 1530 1532 1533 1536 1539 1542 1544 1547 1549 1551 1552 1553 1554 1555 1557 1559 1561 1562 1564 1564 1565 1567 1568 1568 1569 1569 1570 1570 1571
1495 1500 1514 1516 1513 1501 1481 1478 1482 1485 1489 1494 1499 1508 1516 1519 1521 1525 1528 1530 1531 1533 1535 1537 1540 1543 1546 1548 1550 1551 1553 1554 1556 1558 1559 1561 1562 1564 1565 1566 1568 1568 1569 1570 1571 1571 1572 1572 1572
1491 1498 1508 1510 1513 1516 1494 1481 1482 1485 1488 1493 1501 1507 1516 1521 1524 1527 1529 1531 1534 1535 1534 1537 1540 1543 1546 1548 1551 1553 1554 1556 1558 1559 1561 1562 1564 1565 1567 1569 1570 1570 1571 1572 1572 1573 1573 1574 1574
1485 1499 1496 1501 1513 1515 1490 1482 1483 1485 1492 1495 1498 1507 1514 1523 1525 1529 1530 1534 1534 1536 1538 1539 1541 1543 1545 1550 1552 1553 1555 1558 1560 1561 1560 1561 1566 1568 1570 1571 1571 1572 1572 1573 1574 1575 1575 1575 1576
1483 1502 1498 1493 1496 1496 1485 1482 1487 1490 1492 1494 1497 1504 1514 1521 1526 1530 1533 1535 1538 1539 1539 1541 1540 1544 1547 1550 1552 1554 1557 1559 1561 1561 1561 1567 1570 1571 1571 1572 1572 1573 1573 1574 1575 1576 1576 1576 1576
1482 1502 1483 1479 1493 1497 1487 1483 1485 1488 1492 1496 1502 1510 1516 1520 1525 1527 1533 1535 1538 1540 1542 1545 1544 1545 1547 1550 1553 1556 1558 1561 1562 1563 1565 1568 1570 1573 1572 1573 1574 1575 1575 1576 1577 1577 1577 1577 1577
1488 1489 1469 1481 1494 1496 1496 1482 1487 1494 1500 1498 1502 1510 1517 1520 1523 1527 1532 1535 1537 1540 1544 1544 1544 1546 1549 1550 1554 1557 1559 1562 1563 1563 1565 1568 1571 1574 1573 1574 1574 1575 1576 1577 1577 1578 1578 1577 1577
1481 1478 1476 1483 1489 1494 1487 1483 1491 1496 1497 1497 1502 1510 1515 1519 1522 1525 1530 1534 1536 1541 1543 1544 1546 1548 1549 1551 1555 1557 1560 1562 1564 1564 1565 1568 1571 1572 1573 1574 1575 1576 1575 1577 1577 1577 1578 1579 1579
1484 1484 1481 1485 1489 1491 1491 1486 1491 1496 1496 1497 1503 1511 1515 1518 1522 1526 1529 1535 1536 1538 1542 1545 1547 1549 1550 1553 1556 1558 1560 1562 1563 1565 1566 1568 1571 1574 1574 1575 1577 1574 1576 1579 1578 1579 1579 1579 1580
1484 1484 1480 1485 1490 1491 1492 1492 1493 1497 1498 1499 1505 1509 1513 1516 1521 1525 1530 1532 1535 1538 1542 1545 1548 1550 1553 1554 1557 1560 1562 1561 1564 1565 1566 1569 1570 1572 1575 1574 1573 1576 1578 1577 1580 1579 1578 1578 1580
1475 1482 1497 1491 1483 1486 1490 1496 1499 1500 1498 1501 1505 1507 1510 1515 1520 1524 1528 1532 1535 1538 1541 1545 1548 1551 1554 1555 1557 1558 1562 1563 1564 1566 1568 1570 1571 1571 1572 1574 1573 1576 1578 1579 1580 1580 1579 1579 1580
1472 1490 1512 1508 1494 1482 1489 1517 1503 1500 1498 1499 1502 1505 1509 1515 1518 1522 1527 1531 1534 1533 1540 1544 1547 1550 1553 1555 1557 1559 1562 1564 1564 1565 1569 1573 1571 1571 1573 1575 1573 1578 1581 1580 1580 1579 1579 1581 1580
1467 1497 1513 1511 1485 1480 1488 1524 1502 1500 1498 1499 1499 1502 1508 1513 1517 1521 1525 1529 1533 1536 1539 1543 1546 1549 1553 1556 1558 1560 1562 1564 1566 1566 1566 1569 1570 1569 1571 1576 1574 1581 1581 1579 1581 1578 1578 1580 1581
1481 1498 1504 1499 1486 1479 1481 1496 1490 1495 1493 1497 1497 1500 1505 1511 1514 1519 1523 1527 1533 1535 1540 1545 1546 1550 1552 1555 1557 1560 1562 1564 1566 1567 1567 1568 1570 1569 1570 1575 1579 1579 1580 1578 1573 1578 1580 1580 1581
1456 1468 1478 1474 1479 1484 1471 1473 1479 1483 1486 1493 1497 1498 1502 1506 1511 1517 1520 1523 1530 1533 1539 1543 1546 1548 1551 1554 1555 1558 1559 1563 1564 1566 1567 1568 1569 1570 1570 1572 1575 1578 1580 1579 1582 1581 1580 1579 1582
1454 1458 1463 1467 1465 1468 1465 1466 1467 1475 1479 1483 1492 1496 1500 1502 1507 1512 1515 1523 1525 1530 1535 1541 1544 1546 1549 1552 1555 1558 1560 1562 1565 1564 1566 1567 1569 1570 1571 1572 1574 1577 1578 1580 1580 1582 1580 1578 1578
1457 1461 1459 1468 1465 1461 1465 1469 1472 1481 1484 1480 1483 1489 1494 1498 1502 1509 1513 1517 1522 1525 1530 1537 1541 1543 1548 1551 1554 1557 1559 1561 1563 1564 1565 1566 1568 1569 1570 1572 1573 1574 1575 1577 1577 1578 1578 1577 1577
1467 1452 1453 1463 1472 1480 1456 1487 1472 1469 1477 1477 1476 1481 1486 1492 1496 1502 1507 1511 1516 1520 1525 1531 1537 1539 1544 1548 1552 1554 1556 1559 1561 1562 1563 1565 1566 1567 1569 1571 1571 1572 1572 1574 1576 1576 1576 1576 1575
1462 1449 1449 1452 1461 1464 1462 1468 1455 1471 1467 1467 1463 1468 1476 1482 1489 1496 1504 1508 1511 1514 1520 1525 1532 1536 1540 1544 1549 1551 1554 1557 1559 1560 1560 1562 1563 1565 1566 1568 1569 1569 1570 1572 1572 1573 1572 1574 1574
1454 1456 1452 1449 1457 1479 1459 1457 1469 1487 1470 1462 1456 1459 1464 1473 1480 1490 1497 1501 1508 1510 1515 1520 1527 1532 1537 1541 1545 1548 1551 1553 1555 1556 1556 1559 1561 1561 1561 1564 1566 1566 1568 1569 1570 1571 1571 1572 1572
1456 1463 1482 1486 1481 1477 1444 1440 1463 1460 1456 1452 1450 1454 1461 1469 1476 1484 1490 1498 1505 1509 1512 1516 1522 1528 1532 1536 1541 1544 1547 1549 1551 1552 1559 1564 1564 1565 1559 1559 1562 1563 1565 1566 1567 1568 1569 1569 1570
1454 1457 1473 1494 1483 1497 1458 1463 1453 1435 1436 1442 1442 1449 1458 1464 1470 1476 1481 1489 1497 1504 1508 1512 1518 1524 1528 1532 1536 1540 1543 1545 1546 1549 1557 1559 1559 1562 1556 1557 1559 1561 1561 1563 1564 1565 1567 1568 1569
1447 1458 1444 1455 1454 1479 1479 1468 1449 1433 1434 1435 1440 1454 1458 1460 1465 1469 1474 1482 1491 1498 1503 1509 1514 1520 1524 1528 1532 1535 1538 1541 1542 1544 1548 1556 1558 1554 1552 1554 1557 1559 1561 1561 1561 1562 1563 1565 1567
1443 1435 1457 1451 1479 1482 1482 1476 1480 1455 1435 1433 1443 1445 1448 1449 1459 1464 1470 1477 1486 1495 1501 1507 1511 1516 1520 1524 1528 1531 1533 1536 1539 1541 1542 1545 1547 1549 1550 1551 1553 1556 1558 1559 1560 1560 1562 1562 1563
1443 1447 1440 1438 1442 1460 1488 1476 1434 1443 1432 1433 1440 1443 1442 1421 1448 1463 1471 1476 1483 1492 1499 1505 1509 1514 1518 1521 1524 1528 1530 1533 1536 1538 1540 1542 1545 1546 1548 1549 1550 1552 1554 1556 1557 1558 1559 1559 1559
1427 1432 1436 1449 1454 1438 1442 1444 1420 1429 1429 1431 1442 1445 1438 1445 1456 1465 1473 1477 1482 1489 1497 1502 1508 1511 1514 1518 1521 1523 1527 1530 1532 1534 1536 1538 1539 1542 1543 1545 1546 1548 1550 1552 1552 1554 1556 1557 1557
Wind_Speed
7 3 6 7 1 5 4 12 13 15 8 15 22 19 20 22 11 10 12 14 21 19 18 17 14 14 12 13 14 13 13 14 12 9 7 7 6 6 8 10 11 11 11 12 12 13 14 14 15
3 9 6 6 3 4 4 14 14 11 9 10 18 20 20 18 19 15 16 16 18 18 17 18 15 14 14 14 15 14 14 13 12 10 8 6 7 8 10 12 10 11 13 13 13 15 15 15 16
6 2 6 1 3 5 12 14 11 11 9 10 19 20 9 15 11 9 19 18 16 16 17 19 16 14 15 16 16 15 15 13 13 12 10 6 8 9 11 11 13 13 13 15 16 17 16 15 15
3 8 10 2 9 10 15 10 10 15 13 14 16 12 16 11 14 20 16 17 13 18 19 21 16 14 15 16 15 15 14 13 12 9 8 8 9 10 11 12 13 15 15 14 15 16 15 14 16
8 9 2 3 5 8 16 10 15 11 13 18 25 20 19 23 24 18 15 9 12 14 15 20 17 14 15 13 12 13 11 10 10 8 9 9 10 10 11 13 13 14 14 13 15 15 14 14 14
9 6 4 3 4 11 5 12 19 15 17 20 24 22 17 20 18 15 17 16 12 19 16 21 18 17 13 15 14 13 10 10 10 10 10 11 11 10 12 13 13 12 12 15 14 15 13 13 13
10 3 4 6 7 11 12 15 14 14 16 18 22 18 21 19 18 16 13 15 16 14 16 18 19 17 21 13 13 10 10 12 13 14 14 13 12 10 12 12 12 13 14 13 14 13 12 12 12
12 3 1 4 12 10 10 14 16 14 15 22 13 12 15 22 19 17 17 16 17 14 19 18 17 15 16 15 12 10 11 14 15 15 18 15 10 8 10 11 12 11 12 12 13 12 13 14 14
5 4 3 5 11 6 12 11 11 14 13 11 20 21 24 25 21 19 21 15 18 15 15 15 15 17 15 12 15 13 14 17 18 20 20 15 11 8 11 10 10 10 11 12 11 11 12 13 17
5 2 6 8 6 7 9 5 14 11 15 16 25 23 23 21 23 23 20 17 16 20 16 16 9 18 20 16 16 15 16 20 22 22 18 12 9 6 6 11 10 10 11 10 11 10 6 4 5
11 8 6 26 29 10 28 12 15 18 3 6 24 24 22 19 23 22 20 19 18 19 14 13 15 21 16 16 18 15 15 20 17 16 17 13 9 7 13 13 14 12 9 10 6 6 6 10 8
5 19 3 8 9 31 7 7 16 20 14 11 23 23 22 18 18 22 25 24 24 18 17 14 16 17 16 18 17 15 16 17 16 14 17 19 11 9 3 5 5 4 4 4 5 4 3 2 6
14 17 1 6 5 8 3 6 10 16 3 15 22 21 20 17 18 16 21 24 20 21 18 15 15 15 19 20 16 18 15 9 9 12 17 12 6 8 6 12 4 10 10 3 3 7 1 2 6
11 25 3 5 7 2 7 4 8 8 8 14 21 20 18 16 18 17 14 21 22 17 24 16 15 14 19 18 15 14 11 5 7 12 9 7 12 12 5 10 6 4 7 11 5 5 3 5 8
15 9 24 18 4 6 6 2 6 16 14 16 19 19 20 18 20 15 16 18 20 23 18 14 11 15 20 15 13 15 14 9 7 6 7 13 10 13 8 7 7 5 8 2 7 4 2 1 4
14 11 8 17 24 10 6 7 20 20 13 15 19 18 20 19 20 19 19 18 19 19 23 14 13 14 13 12 20 17 14 13 13 13 8 12 9 15 8 4 8 6 6 3 2 7 8 4 3
10 1 10 3 23 9 10 3 26 17 14 12 19 19 18 21 21 17 17 19 19 22 18 18 17 17 12 14 18 14 12 15 10 11 7 12 7 14 7 4 10 7 3 2 6 2 3 4 3
2 11 6 18 8 9 14 16 19 19 19 21 16 22 19 25 21 21 21 20 20 22 20 17 16 22 16 15 14 14 12 11 10 11 12 6 10 10 7 1 5 8 9 6 2 6 1 2 7
5 9 10 12 13 10 7 12 19 24 22 17 13 16 23 20 24 18 22 26 22 21 21 21 19 22 20 15 16 14 12 14 15 11 14 12 9 9 12 2 1 6 3 4 3 9 7 6 3
14 11 11 7 9 11 7 11 21 19 20 24 24 18 23 24 27 26 28 22 25 24 23 24 22 22 19 15 17 15 15 12 13 14 15 12 11 12 15 9 3 7 7 3 6 9 8 3 7
12 11 3 7 4 9 10 10 8 5 16 23 26 27 29 25 26 30 27 29 27 28 25 26 25 24 22 18 17 14 16 16 16 17 14 11 11 11 10 11 13 8 11 5 9 2 7 9 2
14 14 11 4 7 9 7 9 8 12 17 19 27 31 26 27 33 28 31 33 30 30 27 25 28 26 22 23 20 18 18 13 19 18 20 12 15 14 12 14 11 14 6 11 6 6 9 7 8
16 18 14 15 13 11 15 10 2 10 15 15 19 30 32 33 32 28 31 28 31 33 30 27 26 28 22 28 22 21 21 17 13 15 13 20 14 15 14 14 11 14 14 10 10 11 9 14 8
14 18 17 14 9 12 17 17 10 4 19 22 20 27 35 35 35 34 30 16 28 33 29 28 26 28 25 24 25 22 22 21 14 17 13 20 15 14 16 15 13 13 14 16 8 11 16 14 12
16 13 11 12 12 15 17 14 9 21 5 5 22 26 27 29 38 35 27 35 26 28 31 30 26 26 27 24 26 27 24 22 20 19 13 12 16 20 16 14 18 13 14 16 12 13 12 12 15
16 18 13 15 6 5 17 8 5 17 30 38 18 29 10 29 30 44 33 33 28 33 30 30 27 26 27 27 23 25 27 24 24 21 16 11 18 20 13 18 16 14 15 13 17 16 12 9 10
17 15 20 22 7 4 5 10 23 9 12 13 17 29 39 46 40 36 33 32 30 31 30 30 29 24 26 26 24 22 22 23 21 22 19 19 19 11 14 16 13 15 13 17 14 15 13 12 11
19 15 11 13 19 14 6 13 11 15 14 15 14 17 27 29 22 29 29 34 30 26 28 28 30 26 24 25 25 24 23 21 22 21 22 17 17 17 14 13 17 17 17 17 17 18 12 12 12
13 17 17 16 13 16 6 9 17 19 15 14 20 32 9 25 20 25 24 31 28 27 24 28 28 27 24 26 25 24 23 23 21 25 23 23 21 20 24 25 19 18 16 18 21 17 18 20 16
18 17 17 12 14 12 11 2 12 13 17 17 28 26 10 10 18 23 20 30 30 26 26 27 25 25 24 23 26 27 26 22 22 22 25 25 25 28 26 24 23 27 23 21 22 23 21 20 19
Wind_Direction
276 330 19 294 9 235 339 72 60 57 53 57 65 67 66 52 43 107 132 135 138 148 148 140 136 123 122 123 123 126 128 128 132 137 135 122 120 122 121 117 111 110 110 110 105 108 107 103 106
205 292 265 86 335 294 59 79 66 57 81 102 74 76 72 70 87 116 110 139 154 154 144 139 133 129 124 121 118 123 125 127 132 139 131 125 118 112 120 114 116 111 109 107 109 107 106 104 102
143 308 61 286 270 280 88 81 75 72 63 78 97 73 55 99 100 115 143 132 135 143 154 141 137 132 125 118 115 114 114 117 125 124 129 126 131 129 120 120 116 112 114 113 107 104 101 100 103
241 208 41 285 271 290 91 82 70 109 88 81 99 81 72 93 103 123 124 134 142 161 173 159 144 136 126 126 119 118 117 117 134 119 132 141 140 132 125 124 120 118 118 114 111 105 99 102 106
244 73 115 220 245 284 76 77 66 92 94 75 91 88 84 89 116 119 121 131 137 149 167 164 167 150 133 132 136 123 123 119 127 134 133 143 136 135 133 128 125 126 120 117 113 105 103 105 107
247 141 186 318 12 314 342 79 99 87 98 104 98 96 101 104 109 107 128 124 113 137 154 164 166 161 144 133 129 137 136 135 130 122 124 132 135 140 136 130 131 128 124 122 112 108 107 102 101
239 103 228 245 116 337 297 99 89 110 113 100 120 110 114 105 114 116 129 121 125 134 139 158 174 170 160 146 136 140 138 136 128 119 119 120 124 135 133 132 135 126 125 123 119 113 103 94 87
268 90 311 111 129 224 257 91 77 99 96 117 118 134 119 124 119 130 125 130 119 125 109 112 111 160 179 163 148 144 142 135 125 122 112 102 107 124 127 135 139 127 133 127 121 110 95 86 80
253 18 160 148 170 215 248 114 82 108 130 73 117 130 129 128 127 129 135 142 131 129 118 105 98 124 140 153 147 150 149 132 124 106 106 108 88 74 122 142 131 130 128 128 118 107 100 86 86
91 216 200 162 123 280 260 112 141 137 97 107 110 117 136 139 140 145 143 145 137 130 116 132 157 154 151 161 150 147 151 136 119 116 126 125 146 121 139 133 125 120 117 119 108 99 75 52 60
100 267 15 117 130 186 271 156 101 77 5 151 133 139 146 147 150 148 151 154 152 131 140 145 134 141 149 152 164 154 146 139 126 112 122 123 143 190 112 111 113 100 108 106 115 64 42 12 351
74 298 315 73 144 183 158 146 110 121 228 222 138 148 150 160 153 159 155 154 158 158 145 137 140 136 141 144 150 154 145 133 134 142 135 137 127 128 151 111 123 151 73 64 301 245 42 42 139
58 283 181 129 147 108 167 133 132 140 108 127 140 152 158 167 159 161 146 153 154 154 148 135 140 136 128 136 143 146 143 130 123 131 133 141 212 188 114 194 191 168 189 119 61 116 60 92 121
213 254 123 147 164 155 157 131 185 138 143 130 146 163 159 171 158 149 174 157 165 161 162 161 157 150 145 146 148 149 150 145 141 159 145 137 153 195 164 200 218 219 188 171 164 219 156 252 203
222 192 10 338 202 199 125 357 11 188 162 147 162 176 164 177 163 171 173 165 157 163 172 158 168 164 162 168 173 170 164 155 172 180 182 235 159 177 199 172 131 146 206 173 169 182 123 101 190
235 81 157 309 302 141 130 312 267 213 173 168 169 174 161 164 167 172 175 176 163 168 157 166 173 171 172 181 183 173 172 218 202 208 233 191 227 188 171 296 203 138 155 319 320 297 292 218 167
212 191 127 312 287 169 138 151 258 198 190 198 174 161 164 165 169 170 175 169 168 165 163 174 175 171 176 180 176 164 178 178 167 201 268 182 186 183 160 30 102 168 46 285 242 278 77 202 217
209 114 255 157 247 271 185 176 177 184 181 183 206 167 171 168 174 173 177 172 171 170 170 168 180 181 177 201 180 210 166 190 192 203 214 220 193 194 197 286 269 173 0 50 150 359 347 82 8
255 196 180 154 193 227 242 178 164 181 178 180 181 188 173 191 178 176 174 170 172 173 175 179 177 186 182 184 175 183 184 187 202 204 207 208 192 244 196 209 280 231 350 305 188 211 283 322 337
273 260 221 186 191 207 258 240 167 174 177 177 191 196 184 191 172 178 169 186 167 175 178 184 187 195 190 189 182 199 204 192 193 207 202 226 203 221 219 213 219 258 273 292 291 230 266 284 310
276 276 317 23 258 240 261 253 130 135 330 187 193 180 206 191 177 185 177 178 175 176 184 189 190 205 193 188 187 208 203 201 197 209 228 240 194 227 240 230 224 239 232 269 278 289 256 294 24
244 242 266 195 247 275 178 271 195 164 187 239 190 182 191 196 188 186 191 182 181 180 185 193 192 206 193 184 200 199 199 200 198 219 222 208 203 212 229 223 231 249 211 222 244 271 233 264 268
259 267 244 221 232 264 263 248 114 185 197 227 194 193 188 195 186 191 191 188 187 182 181 195 200 204 197 184 191 201 196 203 208 220 217 218 227 211 217 234 245 239 241 230 253 240 236 227 249
253 262 275 275 256 259 246 249 151 86 227 217 188 204 189 192 185 187 194 193 187 181 180 193 205 201 198 195 190 197 206 195 217 212 218 204 223 230 212 217 232 232 239 227 245 243 238 234 221
235 244 242 245 242 240 284 249 139 195 191 301 183 200 194 190 180 176 183 208 197 178 179 191 207 205 199 208 199 204 204 208 215 215 213 223 226 235 233 207 223 238 231 221 236 250 233 234 234
217 228 234 236 228 2 315 359 8 180 172 199 181 187 225 198 190 182 187 188 189 186 180 189 206 212 203 208 213 210 214 217 219 224 206 215 228 226 239 220 225 232 227 231 239 243 247 243 256
227 217 248 255 188 179 261 330 337 212 166 195 207 112 163 229 189 186 186 180 175 182 184 189 207 215 210 208 213 217 216 218 218 225 234 226 222 246 224 239 239 229 232 242 240 243 237 235 251
245 254 225 243 265 263 167 232 205 252 223 208 79 27 247 172 182 169 173 172 175 178 188 191 208 216 212 209 214 220 222 222 212 218 230 232 228 225 237 235 230 235 240 245 245 254 242 253 251
212 242 257 268 239 247 161 247 212 229 218 215 152 169 270 137 158 157 169 170 180 187 190 192 204 214 219 212 215 218 227 228 222 219 223 225 222 229 231 245 247 227 238 242 252 239 237 243 248
248 221 235 244 253 268 284 278 133 178 220 215 105 85 44 281 153 150 167 166 167 182 193 190 196 206 221 223 214 219 222 227 234 231 224 230 226 224 233 233 243 237 234 235 241 248 242 245 255